Regional Weather Roundup
Issued by NWS

Home | Current Version | Previous Version | Text Only | Print | Product List | Glossary On
Versions: 1 2 3 4 5 6 7 8 9 10 11 12 13 14 15 16 17 18 19 20 21 22 23 24 25 26 27 28 29 30 31 32 33 34 35 36 37 38 39 40 41 42 43 44 45 46 47 48 49 50
000
ASUS42 KFFC 021303
RWRGA
WEATHER ROUNDUP FOR GEORGIA
NATIONAL WEATHER SERVICE PEACHTREE CITY GA
900 AM EDT MON MAY 02 2016

NOTE: "FAIR" INDICATES FEW OR NO CLOUDS BELOW 12,000 FEET WITH NO
SIGNIFICANT WEATHER AND/OR OBSTRUCTIONS TO VISIBILITY.

* = USE WITH CAUTION. THE STATIONS MARKED WITH AN ASTERISK MAY NOT
REPORT WEATHER SUCH AS PRECIPITATION, FOG, OR THUNDER AND ARE NOT
QUALITY CONTROLLED BY NWS.

THE REMARK "TC" DENOTES TEMPERATURE READING IN DEGREES CELSIUS.

GAZ001>058-021400-
NORTH GEORGIA

CITY           SKY/WX    TMP DP  RH WIND       PRES   REMARKS
ATLANTA        MOSUNNY   71  65  81 SE5       30.04S
ATHENS         PTSUNNY   71  68  90 CALM      30.04S
CHAMBLEE       CLOUDY    70  69  97 CALM      30.04R
PEACHTREE CITY   N/A     69  66  90 SE3       30.05R
ROME           MOSUNNY   65  61  87 CALM      30.03R
WEST ATLANTA   SUNNY     71  65  81 CALM      30.03S
GAINESVILLE    CLOUDY    69  64  84 CALM      30.07R
CARTERSVILLE   MOSUNNY   67  65  93 CALM      30.04R


CITY           SKY/WX    TMP DP  RH WIND       PRES   REMARKS
DALTON*        PTSUNNY   64  64 100 CALM      30.03S
LAWRENCEVILLE* CLOUDY    70  68  94 CALM      30.06R
KENNESAW*      MOSUNNY   66  63  88 CALM      30.03S
CANTON*        PTSUNNY   64  63  94 CALM      30.06R
BLAIRSVILLE*     N/A    N/A N/A N/A MISG      30.09R
$$

GAZ059>098-102>109-021400-
CENTRAL GEORGIA

CITY           SKY/WX    TMP DP  RH WIND       PRES   REMARKS
AUGUSTA-BUSH   CLOUDY    68  66  93 CALM      30.05R
AUGUSTA-DANIEL CLOUDY    71  65  81 SE5       30.05R
COLUMBUS       MOSUNNY   70  66  87 CALM      30.03R
MACON          CLOUDY    73  67  81 S5        30.04R


CITY           SKY/WX    TMP DP  RH WIND       PRES   REMARKS
LAGRANGE*      MOSUNNY   71  70  96 CALM      30.03S
SYLVANIA*      PTSUNNY   72  72 100 CALM      30.07R FOG
MILLEDGEVILLE* CLOUDY    72  66  83 CALM      30.05R
$$

GAZ099>101-110>166-021400-
SOUTH GEORGIA

CITY           SKY/WX    TMP DP  RH WIND       PRES   REMARKS
SAVANNAH       CLOUDY    76  70  82 S9        30.06R
VALDOSTA       SUNNY     74  69  85 S8        30.06R
ALMA           MOSUNNY   74  71  91 S8        30.05S
ST SIMONS      PTSUNNY   77  72  84 S7        30.06R
ALBANY         CLOUDY    73  67  81 SE5       30.05R
BRUNSWICK      MOSUNNY   79  72  78 S13       30.07R


CITY           SKY/WX    TMP DP  RH WIND       PRES   REMARKS
BAINBRIDGE*    CLOUDY    73  68  83 S3        30.04R
MOULTRIE*      CLOUDY    70  68  94 SE3       30.05R
VIDALIA*       CLOUDY    72  70  94 S7        30.06R
WAYCROSS*      MOSUNNY   74  72  92 S7        30.06R
DOUGLAS*       MOSUNNY   73  72  94 S5        30.07R
$$



USA.gov is the U.S. government's official web portal to all federal, state and local government web resources and services.